Theta_e
356 355 354 354 354 353 353 352 351 351 352 352 352 351 350 350 350 351 352 352 353 355 354 352 353 353 352 353 354 354 353 353 350 345 340 335 335 338 339 338 339 339
356 355 354 354 354 352 352 351 350 351 351 350 350 350 349 349 349 350 351 351 352 354 353 353 353 353 353 353 353 353 353 352 350 346 341 337 336 337 338 338 339 338
356 356 355 355 355 353 352 352 351 350 350 349 349 349 349 349 349 349 351 351 352 352 352 352 353 352 352 353 353 353 353 351 348 345 342 340 337 336 337 338 340 339
356 356 355 355 355 354 353 353 352 351 351 350 349 349 349 350 350 350 350 350 350 350 350 351 352 351 352 353 353 353 353 350 347 344 343 341 338 336 336 337 339 339
355 355 355 355 355 355 353 353 352 351 351 351 350 350 350 350 350 350 350 349 350 349 349 352 353 351 352 353 353 353 353 351 347 344 343 342 338 336 336 337 337 338
355 355 355 355 355 355 354 353 352 352 351 351 351 350 350 350 350 350 351 349 349 349 349 351 353 351 351 353 353 353 353 351 348 344 342 341 338 337 337 337 337 337
356 355 355 355 355 355 354 354 353 352 352 351 351 351 351 351 350 350 350 350 349 348 347 349 351 351 352 353 353 353 352 352 349 344 341 340 339 337 337 337 337 337
355 355 355 355 355 355 355 354 353 352 352 351 352 351 351 351 351 350 350 350 350 348 345 346 350 351 352 353 353 353 352 351 350 346 342 339 339 339 338 337 336 336
356 356 355 355 355 355 355 355 354 353 352 352 352 352 351 351 351 351 350 350 350 348 346 346 349 351 352 353 352 352 352 352 350 348 344 341 340 340 340 339 337 337
356 356 356 355 355 355 355 355 354 354 353 352 352 353 353 351 351 351 351 350 350 349 348 347 348 351 352 352 352 352 352 352 350 349 346 344 342 341 341 341 340 339
356 356 356 355 355 355 355 355 354 355 354 353 353 354 353 352 351 351 351 351 350 349 348 348 349 350 352 352 352 352 352 352 351 350 348 346 344 343 342 342 342 342
356 356 356 356 355 355 355 355 355 355 355 354 354 353 354 353 352 352 351 351 351 350 349 348 349 350 351 351 352 352 352 352 351 350 349 348 346 345 344 342 342 343
356 356 356 356 356 356 355 355 355 355 355 355 354 354 354 354 353 352 351 351 350 350 349 349 350 351 351 351 351 352 352 352 351 350 350 348 347 347 345 344 343 342
356 356 357 356 356 356 356 356 355 355 355 355 355 354 355 355 354 353 352 352 351 351 350 350 351 351 351 351 351 351 352 351 351 350 350 349 348 347 346 345 344 343
355 356 357 356 356 356 356 356 356 356 355 355 355 355 355 355 355 354 353 352 352 351 351 351 352 352 351 351 351 351 352 351 351 350 349 349 348 347 346 345 344 344
354 355 357 357 356 356 356 356 356 356 356 356 355 355 355 355 355 355 355 354 352 352 352 353 353 352 351 351 351 351 351 351 351 350 349 349 348 347 346 345 345 344
353 355 356 356 356 356 356 356 357 357 356 356 356 356 355 355 355 355 355 355 354 353 354 354 354 353 352 351 351 351 351 351 350 350 349 349 348 347 346 345 345 344
354 355 355 356 356 357 357 356 356 357 357 357 357 356 356 355 355 356 355 356 355 355 355 355 354 353 352 351 351 351 351 351 350 350 349 348 348 347 346 346 345 344
355 356 356 356 356 356 357 357 357 357 358 358 358 357 357 357 356 356 356 356 355 356 356 355 354 353 352 351 351 351 350 351 350 350 349 349 348 347 347 346 345 345
355 356 357 358 358 357 358 358 358 358 358 358 358 358 358 358 357 357 357 356 356 356 356 356 355 354 352 351 351 351 351 350 350 350 349 349 348 348 347 347 346 345
356 358 358 359 358 358 358 358 358 358 358 358 359 359 359 359 358 357 358 357 357 356 356 356 355 354 353 352 351 351 351 350 349 349 349 349 348 348 348 347 347 346
357 359 359 360 360 359 359 359 359 359 359 359 359 359 359 359 358 358 358 358 357 357 356 356 356 354 353 352 351 351 350 350 349 349 350 349 348 348 348 347 347 346
358 359 360 360 360 360 360 360 359 360 360 359 359 359 359 358 358 358 358 358 358 357 357 357 356 355 354 352 352 351 350 349 349 349 350 350 349 348 348 347 347 346
358 358 359 360 360 360 360 360 360 360 360 360 359 359 359 359 359 359 358 358 358 357 357 357 357 356 354 353 352 351 350 350 348 349 350 351 350 349 348 348 347 347
357 357 357 359 360 360 360 361 361 360 360 360 359 359 359 359 359 358 359 359 359 358 357 357 357 357 355 354 353 352 351 350 349 349 351 351 351 350 349 349 348 347
356 357 357 358 360 360 360 360 361 360 360 360 360 359 359 359 359 359 359 359 359 358 358 356 357 357 356 354 354 352 352 350 349 350 351 351 351 351 350 350 349 347
Wind_Speed
37 37 38 35 33 33 33 34 35 33 33 32 32 33 33 32 31 30 29 28 24 18 20 24 22 21 21 20 19 19 19 18 19 19 18 18 18 16 15 15 14 13
39 38 39 35 34 37 37 37 37 36 36 36 35 34 34 33 32 31 30 29 27 21 20 22 22 23 23 22 21 20 20 20 20 20 20 19 20 19 17 16 15 15
40 38 39 37 34 37 38 36 36 37 36 36 36 35 34 33 32 32 30 30 28 25 23 21 22 26 25 23 22 21 21 21 21 22 21 20 21 21 19 17 15 16
41 38 39 37 34 35 37 35 35 37 36 35 36 36 34 33 32 32 31 31 29 28 27 22 21 27 27 25 24 22 22 22 22 23 23 21 21 21 21 19 18 18
41 40 39 36 32 33 36 36 36 36 36 36 36 35 34 34 33 32 31 31 30 29 28 23 21 26 28 27 25 24 24 24 23 24 24 23 22 22 22 22 20 20
39 40 39 36 34 35 36 36 37 36 36 36 35 35 35 34 33 32 32 32 31 29 28 25 24 27 29 28 27 26 26 25 25 26 25 24 23 23 23 23 22 21
38 39 39 38 36 36 35 35 37 38 37 36 36 36 35 34 34 34 33 33 32 31 30 30 29 29 29 29 29 28 27 27 27 27 27 26 25 24 24 24 23 22
36 36 38 39 36 34 34 34 36 38 39 37 36 36 36 36 35 35 35 34 33 33 33 33 32 31 30 31 31 30 29 29 30 29 29 28 27 26 25 25 24 23
35 34 36 38 37 34 33 33 33 36 39 39 37 35 36 37 37 36 36 35 35 35 35 34 34 33 32 32 32 32 32 31 31 31 31 30 30 28 27 26 25 24
36 35 35 36 36 34 33 32 31 32 36 39 37 33 34 38 38 37 37 37 36 37 37 36 36 35 34 34 34 33 33 33 33 32 32 32 32 31 29 28 27 26
37 36 35 36 36 34 33 33 32 30 32 36 36 32 33 37 39 38 38 38 38 38 38 38 38 37 36 36 35 35 35 35 34 34 33 33 33 33 32 31 30 28
37 36 36 37 36 34 33 34 33 31 30 33 36 35 33 34 38 40 40 40 40 40 40 40 40 39 38 37 37 36 36 36 35 35 34 34 34 34 33 32 32 30
37 38 37 36 35 35 34 34 34 33 32 33 35 36 34 33 36 40 42 42 42 42 42 42 41 40 39 39 38 37 37 37 36 36 35 35 35 34 33 33 33 32
37 38 36 36 36 36 36 34 34 34 33 33 35 36 35 35 36 39 42 43 43 43 43 42 41 41 40 40 40 39 38 37 37 37 36 36 36 35 33 33 32 32
39 36 34 36 37 36 37 35 33 33 34 34 36 37 36 35 35 37 41 43 43 43 43 42 41 41 42 41 41 40 39 38 38 38 37 36 36 35 34 34 33 32
42 37 34 37 38 38 40 38 34 34 35 37 38 38 35 34 35 36 38 41 43 43 43 41 40 42 42 42 42 41 40 39 38 38 38 38 37 36 34 34 34 34
41 39 37 39 40 39 40 40 37 35 36 37 38 37 35 36 38 37 36 36 39 42 40 38 40 42 42 43 43 41 40 40 39 39 39 39 38 37 35 35 34 34
39 39 38 39 39 39 40 41 40 36 35 36 36 37 38 38 38 38 36 34 35 37 36 36 39 42 43 43 44 43 41 40 38 38 38 38 39 38 36 35 34 33
39 37 38 38 39 39 38 38 38 36 35 35 35 36 37 36 36 36 36 36 34 34 34 33 35 41 44 44 44 44 43 41 37 37 38 39 39 38 37 35 35 32
39 38 38 37 37 36 35 35 36 36 36 35 33 34 33 34 35 35 35 37 36 34 34 33 33 38 43 44 44 44 44 43 39 35 36 39 39 39 38 37 36 34
38 38 35 34 35 35 34 35 36 36 35 33 32 32 33 33 34 34 34 35 35 33 33 33 34 38 42 43 44 45 43 43 41 36 33 36 38 39 39 38 37 36
36 34 31 31 31 32 33 34 35 35 35 33 31 30 31 32 33 34 33 33 33 33 33 33 34 37 40 42 44 44 42 42 43 38 32 32 36 38 39 38 37 36
32 30 28 28 29 30 32 33 34 34 33 32 31 30 30 32 33 33 32 32 33 33 33 32 32 36 40 41 42 43 42 42 43 39 32 30 34 38 38 38 37 37
34 32 32 31 31 33 34 33 33 32 32 32 32 32 31 32 34 33 32 32 33 34 35 34 31 35 40 40 40 42 42 42 43 38 31 29 32 35 35 36 37 37
37 38 40 37 34 35 34 33 32 31 31 31 31 31 30 30 32 33 31 31 32 33 37 37 33 34 38 40 40 41 42 42 42 38 33 31 30 30 30 30 32 35
36 38 39 36 35 35 32 31 31 30 30 31 31 31 31 30 32 33 33 34 33 32 34 38 36 34 37 40 41 41 41 42 41 38 35 32 32 30 27 25 25 28
Wind_Direction
214 215 216 215 215 216 217 218 220 219 219 220 223 226 229 231 233 233 235 236 234 231 235 241 241 241 243 244 244 242 241 237 230 229 230 228 227 229 238 244 244 246
215 216 217 215 215 219 220 222 222 221 222 225 226 228 230 232 233 234 235 235 235 233 234 236 239 241 241 242 243 240 238 236 230 229 230 229 230 232 239 246 247 248
215 215 216 215 216 220 221 221 223 224 225 227 228 230 231 232 233 234 234 235 235 235 236 235 237 241 240 240 242 239 236 235 230 229 231 231 233 235 239 243 244 247
215 214 215 216 215 218 219 218 221 224 224 226 228 230 230 231 231 232 233 235 234 235 237 236 234 238 238 239 240 237 235 236 232 231 231 232 235 237 239 241 242 245
215 215 215 214 213 215 217 217 219 221 222 224 227 228 229 230 230 230 232 233 232 234 236 232 231 236 237 237 238 235 233 233 232 232 232 233 236 237 238 240 242 244
213 215 215 215 214 215 217 217 219 221 221 223 225 226 228 229 230 229 231 231 230 230 231 229 232 236 236 236 236 235 233 231 231 232 231 232 235 237 238 240 241 242
211 213 215 216 216 217 217 218 220 221 222 223 224 226 227 228 229 230 232 232 229 228 230 232 234 235 234 235 234 234 233 232 232 232 231 231 234 236 238 240 240 240
208 210 213 215 215 215 215 216 218 221 222 222 222 225 227 227 229 231 232 232 229 228 230 232 234 234 234 234 233 233 232 231 231 232 230 230 232 234 236 239 240 239
205 206 209 212 212 212 212 213 216 219 222 222 222 223 226 227 229 230 231 232 230 230 230 230 232 232 232 233 233 233 232 231 231 231 230 230 231 233 234 236 238 237
203 204 206 208 210 211 212 211 212 215 219 221 220 219 222 226 228 229 230 231 230 230 230 230 230 230 230 231 233 234 233 233 233 233 232 231 232 233 234 234 235 235
203 204 205 207 208 210 211 211 211 211 213 217 217 215 218 224 226 226 228 229 229 230 230 230 230 229 229 230 232 233 234 234 234 235 234 234 234 234 234 235 235 235
202 203 205 206 206 208 209 209 209 208 209 212 214 213 214 219 223 225 226 228 229 230 231 231 230 228 228 229 230 232 232 233 234 236 236 236 236 236 236 236 237 236
200 202 204 203 203 204 206 206 207 207 208 209 211 212 212 214 219 223 226 227 229 230 230 231 229 228 228 229 229 230 231 232 232 234 235 236 237 237 237 237 238 238
199 201 201 200 200 202 204 204 205 207 207 208 209 210 211 213 216 221 225 226 228 230 230 230 229 227 227 227 227 228 230 231 232 233 233 235 237 237 237 237 238 238
201 200 199 199 200 201 203 204 204 205 206 208 210 210 210 212 214 218 222 224 226 228 229 228 227 226 226 226 226 227 228 229 231 232 232 232 235 236 236 237 238 238
205 203 200 201 202 204 206 205 204 205 207 209 213 212 209 210 212 215 219 221 223 225 226 225 225 226 227 227 226 226 227 228 228 230 231 231 233 233 234 236 238 238
206 206 204 204 205 205 206 206 205 206 209 211 213 212 211 213 215 215 215 217 220 223 223 222 223 227 227 227 228 227 226 226 227 229 229 230 231 231 232 234 237 238
204 204 204 204 204 204 205 207 207 207 209 210 211 211 212 213 215 216 216 216 218 220 221 220 224 228 228 227 228 228 226 225 226 227 227 227 229 230 231 233 235 236
202 201 202 203 203 204 203 204 206 207 209 209 210 211 211 212 213 215 217 218 217 218 219 219 223 228 229 228 228 229 227 224 223 225 226 227 229 230 230 232 233 233
200 200 201 201 201 201 200 202 204 207 209 210 209 209 209 210 212 213 215 217 217 217 219 220 223 227 229 228 229 229 228 224 222 223 226 227 229 231 231 232 233 233
200 200 199 198 198 197 198 201 204 207 208 208 208 209 209 209 211 213 215 217 217 217 220 222 225 228 229 229 229 229 227 224 221 222 224 227 229 232 233 234 235 235
200 199 197 196 195 195 198 201 203 205 206 205 206 209 211 211 212 214 215 216 216 216 219 223 225 228 229 229 228 228 225 222 220 221 223 224 228 232 234 235 236 235
198 196 196 195 194 196 200 202 204 205 204 203 204 208 211 213 215 216 215 216 217 216 218 221 224 227 228 228 227 226 222 219 218 220 221 223 226 231 234 234 235 235
197 195 196 195 195 199 202 203 205 205 204 204 206 210 212 215 217 218 215 215 216 216 218 220 221 225 227 226 225 224 220 217 216 218 220 223 225 229 231 232 234 234
201 200 201 199 198 201 202 202 203 204 203 205 208 212 214 215 219 221 220 218 218 218 220 221 220 223 226 225 223 222 219 216 215 216 220 222 223 225 226 228 232 233
203 203 204 203 202 203 202 203 204 203 204 205 208 213 216 217 220 223 224 225 223 221 222 222 219 221 224 223 221 219 217 214 213 215 218 220 221 221 220 221 225 228